NEMO-HD

Last updated on Thu Oct 30 2025 00:02:32 GMT+0000 (Coordinated Universal Time)

1 46277U 20061F 25302.43542985 .00013725 00000+0 35695-3 0 9995 2 46277 97.2273 2.1236 0002387 118.4154 241.7333 15.39028505286429
UTC large
Height (km)
Speed (km/s)
/
Latitude / Longitude
Inclination (degrees)
Orbital Period (minutes)
Azimuth
Elevation
Range (km)
Doppler Factor

Next 0 passes for location: London (51.5072 / 0.1276)

Sorry there are no passes over London.